Карабутак

Казахстан     49°57′20″N   60°07′12″E
темп.,
°C
ветер,
м/с
пор.,
м/с
влажн.,
%
обл.,
%
осадки,
мм/ч
давл.,
гПа
погр.,
м
16 июня, ср
ср1623:00+25вюв33264 0.0 101525
02:00+22ююв22315 0.0 101411
05:00+21ю22336 0.0 101511
08:00+27вюв22263 0.0 1016233
11:00+32юв34195 0.0 10153267
14:00+34ююв33166 0.0 10144059
17:00+34юз431565 0.0 10133826
20:00+31юз3321100 0.0 101321
17 июня, чт
чт1723:00+27юв442276 0.0 101332
02:00+24ю332627 0.0 101322
05:00+23ю442822 0.0 101238
08:00+29ююз472740 0.0 1011304
11:00+34юз781667 0.0 10103675
14:00+36зюз881318 0.0 10084580
17:00+36зюз10111361 0.0 10064368
20:00+31зсз8122776 0.0 1006556
18 июня, пт
пт1823:00+25сз4944100 0.0 1007190
02:00+23сз61158100 0.0 1007367
05:00+19сз711832 0.0 1008466
08:00+19ссз8106829 0.0 1009725
11:00+23ссз910400 0.0 10101568
14:00+25ссз1011273 0.0 10112469
17:00+23с1113300 0.0 10132296
20:00+19ссв912400 0.0 10161909
19 июня, сб
сб1923:00+15с35540 0.0 1018106
02:00+13с46532 0.0 101993
05:00+12ссз45534 0.0 102182
08:00+17ссз57385 0.0 1022729
11:00+21ссз683094 0.0 10221986
14:00+23ссз892671 0.0 10202339
17:00+24ссз792716 0.0 10192590
20:00+22ссв583741 0.0 1019516
20 июня, вс
вс2023:00+20зсз374231 0.0 1019204
02:00+17ссз612565 0.0 1019323
05:00+17ссз5106097 0.0 1019477
08:00+20ссз7105860 0.0 1019753
11:00+22с795151 0.0 10181361
14:00+26ссз81143100 0.0 10172328
17:00+20ссв5974100 0.6 1018268
20:00+23зсз465970 0.0 1017167